Riverton, WY

4:13 AM MST on December 03, 2016 (GMT -0700)
Thermopolis

Weather History for KTBX - October, 2013

Change the Weather History Date:

Monday, October 14, 2013

  Actual Average (KRIW) Record (KRIW)
Temperature  
Mean Temperature 28 °F 46 °F  
Max Temperature 30 °F 59 °F 77 °F (2015)
Min Temperature 26 °F 33 °F 16 °F (2008)
Degree Days  
Heating Degree Days 37 19  
Month to date heating degree days 229  
Since 1 July heating degree days 493  
Cooling Degree Days 0 0  
Month to date cooling degree days 0  
Year to date cooling degree days 494  
Moisture  
Dew Point 27 °F    
Average Humidity 96    
Maximum Humidity 100    
Minimum Humidity 93    
Precipitation  
Precipitation 0.00 in 0.04 in 0.01 in (2001)
Month to date precipitation 0.60  
Year to date precipitation 8.32  
Snow  
Snow 0.00 in - - ()
Month to date snowfall  
Since 1 July snowfall  
Since 1 September snowfall  
Snow Depth -    
Sea Level Pressure  
Sea Level Pressure 30.16 in    
Wind  
Wind Speed 42 mph (NW)    
Max Wind Speed 60 mph    
Max Gust Speed 66 mph    
T = Trace of Precipitation, MM = Missing Value Source: NWS Daily Summary

Daily Weather History Graph

Daily Weather History Graph

Search for Another Location

Airport or City:

Trip Planner

Search our weather history database for the weather conditions in past years. The results will help you decide how hot, cold, wet, or windy it might be!

Date:

Astronomy

Oct. 14, 2013 Rise Set
Actual Time 7:26 AM MDT 6:30 PM MDT
Civil Twilight 6:57 AM MDT 6:59 PM MDT
Nautical Twilight 6:24 AM MDT 7:32 PM MDT
Astronomical Twilight 5:51 AM MDT 8:05 PM MDT
Moon 4:08 PM MDT (10/14) 2:38 AM MDT (10/14)
Length of Visible Light 12h 02m
Length of Day
11h 04m
Waxing Gibbous, 80% of the Moon is Illuminated
Oct 14
Waxing Gibbous
Oct 18
Full
Oct 26
Last Quarter
Nov 3
New
Nov 9
First Quarter

Hourly Weather History & Observations

Time (MDT) Temp. Windchill Dew Point Humidity Pressure Visibility Wind Dir Wind Speed Gust Speed Precip Events Conditions
12:15 AM 30.2 °F 15.9 °F 30.2 °F 100% 30.10 in - NW 26.5 mph - N/A   Overcast
12:35 AM 30.2 °F 15.4 °F 28.4 °F 93% 30.10 in - NW 28.8 mph - N/A   Overcast
12:55 AM 30.2 °F 15.4 °F 28.4 °F 93% 30.10 in - WNW 28.8 mph - N/A   Overcast
1:15 AM 30.2 °F 15.2 °F 28.4 °F 93% 30.10 in - WNW 29.9 mph 34.5 mph N/A   Overcast
1:35 AM 30.2 °F 14.9 °F 28.4 °F 93% 30.10 in - WNW 31.1 mph 36.8 mph N/A   Overcast
1:55 AM 28.4 °F 12.3 °F 28.4 °F 100% 30.10 in - NW 32.2 mph - N/A   Overcast
2:15 AM 30.2 °F 15.4 °F 28.4 °F 93% 30.10 in - NW 28.8 mph 36.8 mph N/A   Overcast
2:35 AM 30.2 °F 14.3 °F 28.4 °F 93% 30.09 in - NW 34.5 mph 39.1 mph N/A   Overcast
2:55 AM 28.4 °F 12.0 °F 28.4 °F 100% 30.09 in - WNW 33.4 mph - N/A   Overcast
3:15 AM 28.4 °F 11.4 °F 28.4 °F 100% 30.08 in - NW 36.8 mph - N/A   Overcast
3:35 AM 30.2 °F 13.9 °F 28.4 °F 93% 30.07 in - NW 36.8 mph 43.7 mph N/A   Overcast
3:55 AM 30.2 °F 13.3 °F 28.4 °F 93% 30.06 in - NW 40.3 mph - N/A   Overcast
4:15 AM 30.2 °F 13.1 °F 28.4 °F 93% 30.07 in - NW 41.4 mph - N/A   Overcast
4:35 AM 28.4 °F 11.0 °F 28.4 °F 100% 30.07 in - NW 39.1 mph - N/A   Overcast
4:55 AM 28.4 °F 10.6 °F 28.4 °F 100% 30.06 in - NW 41.4 mph - N/A   Overcast
5:15 AM 28.4 °F 10.4 °F 28.4 °F 100% 30.06 in - NW 42.6 mph - N/A   Overcast
5:35 AM 28.4 °F 10.8 °F 28.4 °F 100% 30.07 in - NW 40.3 mph - N/A   Overcast
5:55 AM 28.4 °F 11.2 °F 28.4 °F 100% 30.08 in - NW 38.0 mph 43.7 mph N/A   Overcast
6:15 AM 28.4 °F 10.2 °F 28.4 °F 100% 30.07 in - NW 43.7 mph - N/A   Overcast
6:35 AM 28.4 °F 10.0 °F 28.4 °F 100% 30.07 in - NW 44.9 mph 51.8 mph N/A   Overcast
6:55 AM 28.4 °F 10.4 °F 28.4 °F 100% 30.08 in - NW 42.6 mph - N/A   Overcast
7:15 AM 28.4 °F 9.8 °F 28.4 °F 100% 30.07 in - NW 46.0 mph - N/A   Overcast
7:35 AM 28.4 °F 9.5 °F 28.4 °F 100% 30.07 in - WNW 48.3 mph - N/A   Overcast
7:55 AM 28.4 °F 9.2 °F 26.6 °F 93% 30.06 in - NW 50.6 mph 55.2 mph N/A   Overcast
8:15 AM 28.4 °F 8.7 °F 26.6 °F 93% 30.06 in - NW 54.1 mph 59.8 mph N/A   Overcast
8:35 AM 28.4 °F 8.9 °F 26.6 °F 93% 30.07 in - NW 52.9 mph 57.5 mph N/A   Overcast
8:55 AM 28.4 °F 8.9 °F 26.6 °F 93% 30.07 in - NW 52.9 mph 58.7 mph N/A   Overcast
9:15 AM 28.4 °F 9.2 °F 26.6 °F 93% 30.09 in - NW 50.6 mph 58.7 mph N/A   Overcast
9:35 AM 28.4 °F 9.0 °F 26.6 °F 93% 30.09 in - NW 51.8 mph 59.8 mph N/A   Overcast
9:55 AM 28.4 °F 8.7 °F 26.6 °F 93% 30.09 in - WNW 54.1 mph 58.7 mph N/A   Overcast
10:15 AM 28.4 °F 8.6 °F 26.6 °F 93% 30.10 in - WNW 55.2 mph 59.8 mph N/A   Overcast
10:35 AM 26.6 °F 6.3 °F 26.6 °F 100% 30.10 in - WNW 52.9 mph 59.8 mph N/A   Overcast
10:55 AM 26.6 °F 6.1 °F 26.6 °F 100% 30.12 in - NW 54.1 mph 58.7 mph N/A   Overcast
11:15 AM 26.6 °F 6.3 °F 26.6 °F 100% 30.12 in - WNW 52.9 mph 59.8 mph N/A   Overcast
11:35 AM 26.6 °F 6.6 °F 26.6 °F 100% 30.13 in - WNW 50.6 mph 58.7 mph N/A   Overcast
11:55 AM 26.6 °F 6.4 °F 26.6 °F 100% 30.14 in - NW 51.8 mph - N/A   Overcast
12:15 PM 26.6 °F 6.3 °F 26.6 °F 100% 30.14 in - NW 52.9 mph - N/A   Overcast
12:35 PM 28.4 °F 8.7 °F 26.6 °F 93% 30.14 in - NW 54.1 mph 59.8 mph N/A   Overcast
12:55 PM 28.4 °F 9.0 °F 26.6 °F 93% 30.14 in - WNW 51.8 mph 62.1 mph N/A   Overcast
1:15 PM 28.4 °F 9.0 °F 26.6 °F 93% 30.14 in - WNW 51.8 mph 56.4 mph N/A   Overcast
1:35 PM 28.4 °F 9.7 °F 26.6 °F 93% 30.15 in - WNW 47.2 mph 54.1 mph N/A   Overcast
1:55 PM 28.4 °F 9.7 °F 26.6 °F 93% 30.16 in - WNW 47.2 mph 52.9 mph N/A   Overcast
2:15 PM 28.4 °F 8.9 °F 26.6 °F 93% 30.16 in - WNW 52.9 mph 57.5 mph N/A   Overcast
2:35 PM - - - N/A% 30.16 in - WNW 57.5 mph - N/A   Unknown
2:55 PM 28.4 °F 8.6 °F 26.6 °F 93% 30.16 in - WNW 55.2 mph 59.8 mph N/A   Overcast
3:15 PM 26.6 °F 5.5 °F 26.6 °F 100% 30.17 in - WNW 58.7 mph 65.6 mph N/A   Overcast
3:35 PM 26.6 °F 5.4 °F 26.6 °F 100% 30.17 in - WNW 59.8 mph 64.4 mph N/A   Overcast
3:55 PM 26.6 °F 6.1 °F 26.6 °F 100% 30.18 in - WNW 54.1 mph - N/A   Overcast
4:15 PM 26.6 °F 5.7 °F 26.6 °F 100% 30.20 in - WNW 57.5 mph 65.6 mph N/A   Overcast
4:35 PM 26.6 °F 6.1 °F 26.6 °F 100% 30.21 in - WNW 54.1 mph 65.6 mph N/A   Overcast
4:55 PM 26.6 °F 6.0 °F 26.6 °F 100% 30.22 in - WNW 55.2 mph 63.3 mph N/A   Overcast
5:15 PM 26.6 °F 5.5 °F 24.8 °F 93% 30.22 in - WNW 58.7 mph 63.3 mph N/A   Overcast
5:35 PM 26.6 °F 5.7 °F 24.8 °F 93% 30.23 in - WNW 57.5 mph 63.3 mph N/A   Overcast
5:55 PM 26.6 °F 5.7 °F 24.8 °F 93% 30.24 in - WNW 57.5 mph 63.3 mph N/A   Overcast
6:15 PM 26.6 °F 5.8 °F 24.8 °F 93% 30.24 in - WNW 56.4 mph 61.0 mph N/A   Overcast
6:35 PM 26.6 °F 6.6 °F 24.8 °F 93% 30.27 in - WNW 50.6 mph - N/A   Overcast
6:55 PM 26.6 °F 6.8 °F 24.8 °F 93% 30.27 in - WNW 49.5 mph 54.1 mph N/A   Overcast
7:15 PM 26.6 °F 6.4 °F 24.8 °F 93% 30.28 in - WNW 51.8 mph - N/A   Overcast
7:35 PM 26.6 °F 6.8 °F 24.8 °F 93% 30.27 in - WNW 49.5 mph - N/A   Overcast
7:55 PM 26.6 °F 6.4 °F 24.8 °F 93% 30.28 in - WNW 51.8 mph 56.4 mph N/A   Overcast
8:15 PM 26.6 °F 6.9 °F 24.8 °F 93% 30.29 in - WNW 48.3 mph 56.4 mph N/A   Overcast
8:35 PM 26.6 °F 6.4 °F 24.8 °F 93% 30.28 in - WNW 51.8 mph - N/A   Overcast
8:55 PM 26.6 °F 6.6 °F 24.8 °F 93% 30.30 in - WNW 50.6 mph - N/A   Overcast
9:15 PM 26.6 °F 7.1 °F 24.8 °F 93% 30.31 in - WNW 47.2 mph 51.8 mph N/A   Overcast
9:35 PM 26.6 °F 6.9 °F 24.8 °F 93% 30.30 in - WNW 48.3 mph 54.1 mph N/A   Overcast
9:55 PM 26.6 °F 6.8 °F 24.8 °F 93% 30.31 in - WNW 49.5 mph 54.1 mph N/A   Overcast
10:15 PM 26.6 °F 7.1 °F 24.8 °F 93% 30.32 in - WNW 47.2 mph - N/A   Overcast
10:35 PM 26.6 °F 7.1 °F 24.8 °F 93% 30.32 in - WNW 47.2 mph 54.1 mph N/A   Overcast
10:55 PM 26.6 °F 7.3 °F 24.8 °F 93% 30.33 in - WNW 46.0 mph 52.9 mph N/A   Overcast
11:15 PM 26.6 °F 7.5 °F 24.8 °F 93% 30.33 in - NW 44.9 mph 50.6 mph N/A   Overcast
11:35 PM 26.6 °F 7.7 °F 24.8 °F 93% 30.34 in - WNW 43.7 mph - N/A   Overcast
11:55 PM 26.6 °F 7.9 °F 24.8 °F 93% 30.35 in - NW 42.6 mph 48.3 mph N/A   Overcast